Weather History for Wink, TX

Change the Weather History Date:

Tuesday, November 8, 2011

  Actual Average Record
Temperature  
Mean Temperature 54 °F -  
Max Temperature 64 °F 72 °F 93 °F (2005)
Min Temperature 43 °F 40 °F 19 °F (1938)
Degree Days  
Heating Degree Days 12    
Growing Degree Days 4 (Base 50)    
Moisture  
Dew Point 20 °F    
Average Humidity 29    
Maximum Humidity 55    
Minimum Humidity 14    
Precipitation  
Precipitation 0.00 in - - ()
Sea Level Pressure  
Sea Level Pressure 30.02 in    
Wind  
Wind Speed 10 mph (WNW)    
Max Wind Speed 20 mph    
Max Gust Speed 24 mph    
Visibility 10 miles    
Events      
Averages and records for this station are not official NWS values.
T = Trace of Precipitation, MM = Missing Value Source: NWS Daily Summary

Daily Weather History Graph

Daily Weather History Graph

Search for Another Location

Airport:

Trip Planner

Search our weather history database for the weather conditions in past years. The results will help you decide how hot, cold, wet, or windy it might be!

Date:

Astronomy

Nov. 08, 2011 Rise Set
Actual Time 7:14 AM CST 5:57 PM CST
Civil Twilight 6:49 AM CST 6:23 PM CST
Nautical Twilight 6:20 AM CST 6:52 PM CST
Astronomical Twilight 5:51 AM CST 7:21 PM CST
Moon 4:36 PM CST (11/8) 5:19 AM CST (11/8)
Length of Visible Light 11h 34m
Length of Day
10h 43m
Waxing Gibbous, 96% of the Moon is Illuminated
Nov 8
Waxing Gibbous
Nov 10
Full
Nov 18
Last Quarter
Nov 25
New
Dec 2
First Quarter

Hourly Weather History & Observations

Time (CST) Temp. Windchill Dew Point Humidity Pressure Visibility Wind Dir Wind Speed Gust Speed Precip Events Conditions
1:53 AM 57.0 °F - 25.0 °F 29% 29.82 in 10.0 mi WNW 11.5 mph - N/A   Clear
2:53 AM 51.8 °F - 24.8 °F 35% 29.93 in 10.0 mi West 9.2 mph - N/A   Clear
3:53 AM 52.0 °F - 23.0 °F 32% 29.84 in 10.0 mi WNW 13.8 mph - N/A   Clear
4:53 AM 50.0 °F - 19.9 °F 31% 29.87 in 10.0 mi WNW 11.5 mph - N/A   Clear
5:53 AM 46.0 °F 41.9 °F 23.0 °F 40% 29.91 in 10.0 mi West 8.1 mph - N/A   Clear
6:53 AM 43.0 °F 38.2 °F 21.9 °F 43% 29.95 in 10.0 mi WSW 8.1 mph - N/A   Clear
7:53 AM 43.0 °F - 21.9 °F 43% 29.99 in 10.0 mi Calm Calm - N/A   Clear
8:53 AM 50.0 °F - 19.9 °F 31% 30.00 in 10.0 mi West 10.4 mph - N/A   Clear
9:53 AM 54.0 °F - 17.1 °F 23% 30.00 in 10.0 mi WSW 10.4 mph - N/A   Clear
10:53 AM 57.0 °F - 16.0 °F 20% 30.00 in 10.0 mi West 19.6 mph 24.2 mph N/A   Clear
11:53 AM 59.0 °F - 16.0 °F 19% 30.00 in 10.0 mi West 13.8 mph 21.9 mph N/A   Clear
1:53 PM 63.0 °F - 12.0 °F 14% 29.98 in 10.0 mi WNW 15.0 mph 21.9 mph N/A   Clear
2:53 PM 64.9 °F - 14.0 °F 14% 29.99 in 10.0 mi WNW 15.0 mph 24.2 mph N/A   Clear
3:53 PM 64.0 °F - 15.1 °F 15% 30.00 in 10.0 mi NW 10.4 mph 21.9 mph N/A   Clear
4:53 PM 62.1 °F - 16.0 °F 17% 30.03 in 10.0 mi NW 11.5 mph - N/A   Clear
5:53 PM 59.0 °F - 16.0 °F 19% 30.06 in 10.0 mi NW 6.9 mph - N/A   Clear
6:53 PM 53.1 °F - 15.1 °F 22% 30.11 in 10.0 mi NW 6.9 mph - N/A   Clear
7:53 PM 52.0 °F - 16.0 °F 24% 30.14 in 10.0 mi WNW 4.6 mph - N/A   Clear
8:53 PM 46.9 °F - 16.0 °F 29% 30.17 in 10.0 mi NNE 12.7 mph - N/A   Clear
9:53 PM 48.9 °F - 27.0 °F 43% 30.18 in 10.0 mi NNE 8.1 mph - N/A   Clear
10:53 PM 46.4 °F 41.5 °F 28.4 °F 50% 30.25 in 10.0 mi NNE 10.4 mph - N/A   Clear
11:53 PM 44.1 °F 40.8 °F 28.9 °F 55% 30.22 in 10.0 mi North 5.8 mph - N/A   Clear